sat.trackr.live / text

‹ back to catalog

STARLINK-37280

NORAD 68511 · 2026-068D

PAYLOAD ACTIVE UNKNOWN

§ Identity

Operator
Country
US
Launch date
2026-03-30
Launch site
AFETR
Launch vehicle
Mass (kg)
RCS (m²)

Purposes: comms

External: N2YO · Heavens-Above · Gunter

§ Orbital elements

Epoch: 2026-09-20T01:38:04.750656Z

Period
93.85 min
Inclination
53.1594°
Eccentricity
0.0001584
Mean motion
15.34412782 rev/d
Perigee alt
461.6 km
Apogee alt
463.7 km
Semi-major
6,840.8 km
B*
6.0324e-4
RAAN
295.7360°
Arg perigee
89.4233°
Mean anomaly
270.6951°
Rev number
2,685

§ Raw data

STARLINK-372801 68511U 26068D   26263.06811054  .00020068  00000+0  60324-3 0  99902 68511  53.1594 295.7360 0001584  89.4233 270.6951 15.34412782 26857

JSON: /api/v1/satellites/68511 · /tle

For live sub-satellite position, see the globe view (requires WebGL).

§ Visibility from observer

Set your observer location to see the next 7 days of passes ≥ 10°. The values pass through the URL so the page stays shareable.

No JS? Fill the form by hand. The geolocation button needs JavaScript.